Regional Weather Roundup
Issued by NWS Goodland, KS

Home | Current Version | Previous Version | Text Only | Print | Product List | Glossary On
Versions: 1 2 3 4 5 6 7 8 9 10 11 12 13 14 15 16 17 18 19 20 21 22 23 24 25 26 27 28 29 30 31 32 33 34 35 36 37 38 39 40 41 42 43 44 45 46 47 48 49 50
000
ASUS43 KGLD 260708
RWRGLD

GOODLAND FORECAST AREA HOURLY WEATHER ROUNDUP
NATIONAL WEATHER SERVICE GOODLAND KS
1200 AM MST SUN FEB 26 2017

...OFFICIAL OBSERVATIONS...

CITY           SKY/WX    TMP DP  RH WIND       PRES   REMARKS
GOODLAND KS    CLOUDY    17   9  70 CALM      29.84F
HILL CITY KS   CLOUDY    29  15  56 N7        29.91F
IMPERIAL NEB   PTCLDY    24  15  68 SW9       29.85S
MCCOOK NEB     PTCLDY    25  15  66 SW8       29.87S
AKRON CO       CLEAR     20  12  71 S6        29.81F
BURLINGTON CO  CLOUDY    21   7  54 E5        29.84S
LIMON CO       CLEAR      6   3  87 NW3       29.80F
$$

...UNOFFICIAL OBSERVATIONS...

CITY           SKY/WX    TMP DP  RH WIND       PRES   REMARKS
LENORA KS        N/A     32  32 100 CALM        N/A
SHARON SPRINGS   N/A     19   7  60 N5          N/A
TRENTON NEB      N/A     24  32 100 CALM        N/A
KIT CARSON CO    N/A     17   4  56 CALM        N/A
YUMA CO        FAIR      18  12  79 CALM      29.83F
$$



USA.gov is the U.S. government's official web portal to all federal, state and local government web resources and services.